User: anonymous   Login
Location: Bühlhof
(48.7849°N, 8.6361°E)
Time: 13:44:16
(UTC+00:00)
Language:

Radarsat Rocket - Orbit

View from above orbital plane
View from above orbital plane
View from above satellite
View from above satellite

Ground track
Ground track

The orbit is defined by the following mean orbital elements,

1 23711U          26067.06898895 +.00000000 +00000-0 +95917-4 0 00006
2 23711 100.5075  97.1034 0367197 325.0656  55.1962 13.12851709    03
Epoch (UTC): 08 March 2026 01:39:20
Eccentricity: 0.0367197
inclination: 100.5075°
perigee height: 933 km
apogee height: 1491 km
right ascension of ascending node: 97.1034°
argument of perigee: 325.0656°
revolutions per day: 13.12851709
mean anomaly at epoch: 55.1962°

The dashed part of the orbit path shows where the satellite is in the earth's shadow,  

DLR